Location: Anciles
(42.5833°N, 0.5167°E)
Time: 16:30:38
(UTC+00:00)

CZ-4 R/B - Pass Details

Date: 10 December 2019
Orbit: 533 x 598 km, 97.7° (Epoch: 24 January)

Event Time Altitude Azimuth Distance (km) Brightness Sun altitude
Rises 17:05:59 0° 122° (ESE) 2,709 4.5 -7.6°
Reaches altitude 10° 17:08:55 10° 98° (E) 1,810 3.4 -8.1°
Maximum altitude 17:11:03 14° 65° (ENE) 1,542 2.9 -8.4°
Drops below altitude 10° 17:13:11 10° 31° (NNE) 1,804 3.5 -8.8°
Sets 17:16:05 0° 7° (N) 2,695 4.5 -9.3°
